Salina, KS

11:50 PM CDT on May 22, 2017 (GMT -0500)
Salina Municipal

Weather History for KSLN - September, 2013

Change the Weather History Date:

Sunday, September 15, 2013

  Actual Average Record
Temperature  
Mean Temperature 75 °F 70 °F  
Max Temperature 85 °F 82 °F 101 °F (1978)
Min Temperature 64 °F 59 °F 34 °F (1916)
Degree Days  
Heating Degree Days 0 1  
Month to date heating degree days 0 8  
Since 1 July heating degree days 3 9  
Cooling Degree Days 10 7  
Month to date cooling degree days 209 136  
Year to date cooling degree days 1603 1543  
Growing Degree Days 24 (Base 50)    
Moisture  
Dew Point 62 °F    
Average Humidity 65    
Maximum Humidity 78    
Minimum Humidity 51    
Precipitation  
Precipitation T in 0.08 in 1.67 in (2010)
Month to date precipitation 0.80 1.39  
Year to date precipitation 27.04 25.73  
Sea Level Pressure  
Sea Level Pressure 29.98 in    
Wind  
Wind Speed 11 mph (ENE)    
Max Wind Speed 25 mph    
Max Gust Speed 31 mph    
Visibility 10 miles    
Events Rain    
T = Trace of Precipitation, MM = Missing Value Source: NWS Daily Summary

Daily Weather History Graph

Daily Weather History Graph

Search for Another Location

Airport or City:

Trip Planner

Search our weather history database for the weather conditions in past years. The results will help you decide how hot, cold, wet, or windy it might be!

Date:

Astronomy

Sep. 15, 2013 Rise Set
Actual Time 7:12 AM CDT 7:38 PM CDT
Civil Twilight 6:45 AM CDT 8:05 PM CDT
Nautical Twilight 6:14 AM CDT 8:36 PM CDT
Astronomical Twilight 5:42 AM CDT 9:08 PM CDT
Moon 5:05 PM CDT (9/15) 2:53 AM CDT (9/15)
Length of Visible Light 13h 19m
Length of Day
12h 26m
Waxing Gibbous, 82% of the Moon is Illuminated
Sep 15
Waxing Gibbous
Sep 19
Full
Sep 26
Last Quarter
Oct 4
New
Oct 11
First Quarter

Hourly Weather History & Observations

Time (CDT) Temp. Heat Index Dew Point Humidity Pressure Visibility Wind Dir Wind Speed Gust Speed Precip Events Conditions
12:53 AM 70.0 °F - 62.1 °F 76% 29.89 in 10.0 mi South 5.8 mph - N/A   Clear
1:53 AM 70.0 °F - 63.0 °F 78% 29.88 in 10.0 mi South 8.1 mph - N/A   Clear
2:53 AM 72.0 °F - 62.1 °F 71% 29.88 in 10.0 mi South 9.2 mph - N/A   Scattered Clouds
3:53 AM 72.0 °F - 63.0 °F 73% 29.86 in 10.0 mi SSW 23.0 mph 31.1 mph 0.00 in Rain Light Rain
4:53 AM 72.0 °F - 62.1 °F 71% 29.87 in 10.0 mi South 10.4 mph - 0.00 in   Partly Cloudy
5:53 AM 71.1 °F - 62.1 °F 73% 29.88 in 10.0 mi South 10.4 mph - N/A   Clear
6:53 AM 71.1 °F - 62.1 °F 73% 29.88 in 10.0 mi South 9.2 mph - N/A   Scattered Clouds
7:53 AM 71.1 °F - 62.1 °F 73% 29.92 in 10.0 mi Variable 4.6 mph - N/A   Partly Cloudy
8:53 AM 73.0 °F - 62.1 °F 68% 29.92 in 10.0 mi Variable 5.8 mph - N/A   Clear
9:53 AM 75.9 °F - 62.1 °F 62% 29.95 in 10.0 mi WNW 4.6 mph - N/A   Mostly Cloudy
10:53 AM 75.9 °F - 63.0 °F 64% 29.96 in 10.0 mi NNE 8.1 mph - N/A   Mostly Cloudy
11:53 AM 78.1 °F - 63.0 °F 60% 29.97 in 10.0 mi Calm Calm - N/A   Mostly Cloudy
12:53 PM 79.0 °F - 64.0 °F 60% 29.97 in 10.0 mi SE 3.5 mph - N/A   Clear
1:53 PM 84.0 °F 85.8 °F 64.9 °F 53% 29.96 in 10.0 mi NE 5.8 mph - N/A   Partly Cloudy
2:53 PM 84.9 °F 87.1 °F 66.0 °F 53% 29.96 in 10.0 mi NE 8.1 mph - N/A   Scattered Clouds
3:53 PM 82.0 °F 84.5 °F 66.9 °F 60% 29.97 in 10.0 mi NNE 18.4 mph 24.2 mph N/A   Mostly Cloudy
4:53 PM 77.0 °F - 64.9 °F 66% 29.99 in 10.0 mi NNE 17.3 mph - N/A   Clear
5:53 PM 73.9 °F - 63.0 °F 68% 30.02 in 10.0 mi NNE 18.4 mph - N/A   Partly Cloudy
6:53 PM 72.0 °F - 62.1 °F 71% 30.04 in 10.0 mi NNE 15.0 mph - N/A   Mostly Cloudy
7:53 PM 70.0 °F - 61.0 °F 73% 30.06 in 10.0 mi NNE 13.8 mph 19.6 mph N/A   Overcast
8:53 PM 69.1 °F - 60.1 °F 73% 30.09 in 10.0 mi NE 17.3 mph - N/A   Overcast
9:53 PM 68.0 °F - 59.0 °F 73% 30.12 in 10.0 mi NE 12.7 mph 23.0 mph N/A   Overcast
10:53 PM 66.0 °F - 57.9 °F 75% 30.14 in 10.0 mi NE 12.7 mph - N/A   Overcast
11:38 PM 64.4 °F - 57.2 °F 77% 30.18 in 10.0 mi NNE 12.7 mph - N/A   Overcast
11:53 PM 64.0 °F - 57.9 °F 80% 30.17 in 10.0 mi NNE 9.2 mph - N/A   Overcast